NORTHEAST SUFFOLK  -  Dense Fog Advisory Dense Fog Advisory        NORTHERN NASSAU  -  Dense Fog Advisory Dense Fog Advisory        NORTHERN QUEENS  -  Dense Fog Advisory Dense Fog Advisory     Dense Fog Advisory Dense Fog Advisory        NORTHWEST SUFFOLK  -  Dense Fog Advisory Dense Fog Advisory        SOUTHEAST SUFFOLK  -  Dense Fog Advisory Dense Fog Advisory        SOUTHERN NASSAU  -  Dense Fog Advisory Dense Fog Advisory        SOUTHERN QUEENS  -  Dense Fog Advisory Dense Fog Advisory     Dense Fog Advisory Dense Fog Advisory        SOUTHWEST SUFFOLK  -  Dense Fog Advisory Dense Fog Advisory      

Active alerts

Northern Queens
  Details for Northern Queens Dense Fog Advisory  +1 additional alert
Southern Queens
  Details for Southern Queens Dense Fog Advisory  +1 additional alert
Northern Nassau
  Details for Northern Nassau Dense Fog Advisory
Southern Nassau
  Details for Southern Nassau Dense Fog Advisory
Northwest Suffolk
  Details for Northwest Suffolk Dense Fog Advisory
Southwest Suffolk
  Details for Southwest Suffolk Dense Fog Advisory
Northeast Suffolk
  Details for Northeast Suffolk Dense Fog Advisory
Southeast Suffolk
  Details for Southeast Suffolk Dense Fog Advisory


WXM80 ListenWXM80 Stop

You find our weather info also at:

UK Metoffice

WeatherCloud

Weather Underground

Northeastern Weather Network

AWEKAS

Citizen Weather Observer Program (CWOP)

HAMweather, WeatherForYou, PWS Weather


Weather Underground History page Text

Daily Summary for January 15, 2018 Units:  English    Metric   Both
« Previous Day
Next Day »
Daily Weekly Monthly Yearly Custom
  High: Low: Average:
Temperature: TemperatureF °F 18.2 °F 22.8 °F
Dew Point: DewpointF °F 10.5 °F 16.7 °F
Humidity: Humidity % 70 % 77 %
Wind Speed: WindSpeedMPH mph 0.6 mph 5.3 mph
Wind Gust: WindSpeedGustMPH mph - -
Wind:- - ENE
Pressure: PressureIn in 30.25 in -
Precipitation: 0.00 in    
Historical Graphs
 
 
Tabular Data for January 15, 2018
Time Temperature Dew Point Pressure Wind Wind Speed Wind Gust Humidity Rainfall Rate (Hourly)
TemperatureF °F DewpointF °F PressureIn in Calm     Humidity % HourlyPrecipIn in
00:01 19.2 °F 11.3 °F 30.42 in NNE 6.0 mph 11.5 mph 71 % 0.00 in
00:07 19.2 °F 11.3 °F 30.42 in NE 5.6 mph 9.2 mph 71 % 0.00 in
00:12 19.1 °F 10.9 °F 30.42 in NNE 5.6 mph 12.7 mph 70 % 0.00 in
00:21 19.1 °F 11.2 °F 30.42 in NNE 4.9 mph 6.9 mph 71 % 0.00 in
00:32 19.0 °F 10.8 °F 30.43 in NNE 4.7 mph 9.2 mph 70 % 0.00 in
00:42 18.9 °F 10.7 °F 30.42 in ENE 4.8 mph 9.2 mph 70 % 0.00 in
00:49 18.8 °F 10.6 °F 30.42 in North 6.1 mph 11.5 mph 70 % 0.00 in
00:58 18.8 °F 10.9 °F 30.42 in NE 8.2 mph 12.7 mph 71 % 0.00 in
01:03 18.7 °F 10.5 °F 30.42 in NE 8.6 mph 12.7 mph 70 % 0.00 in
01:14 18.7 °F 10.5 °F 30.43 in NNE 6.2 mph 13.8 mph 70 % 0.00 in
01:20 18.6 °F 10.8 °F 30.43 in NE 6.4 mph 12.0 mph 71 % 0.00 in
01:29 18.6 °F 10.8 °F 30.43 in ENE 6.5 mph 11.0 mph 71 % 0.00 in
01:35 18.7 °F 10.5 °F 30.43 in ENE 6.1 mph 11.5 mph 70 % 0.00 in
01:41 18.8 °F 10.9 °F 30.43 in ENE 9.0 mph 13.0 mph 71 % 0.00 in
01:46 18.8 °F 11.0 °F 30.44 in NE 3.0 mph 12.0 mph 71 % 0.00 in
01:51 18.8 °F 11.0 °F 30.43 in NE 6.0 mph 12.0 mph 71 % 0.00 in
01:56 18.8 °F 10.6 °F 30.43 in NE 5.0 mph 12.0 mph 70 % 0.00 in
02:03 18.9 °F 11.0 °F 30.43 in ENE 5.8 mph 8.1 mph 71 % 0.00 in
02:08 18.8 °F 11.3 °F 30.43 in ENE 4.9 mph 11.5 mph 72 % 0.00 in
02:19 18.9 °F 11.7 °F 30.43 in NE 4.3 mph 5.8 mph 73 % 0.00 in
02:24 18.9 °F 11.7 °F 30.43 in ENE 3.7 mph 9.2 mph 73 % 0.00 in
02:30 18.9 °F 11.7 °F 30.43 in NE 6.5 mph 9.2 mph 73 % 0.00 in
02:35 18.9 °F 11.7 °F 30.43 in NE 3.6 mph 6.9 mph 73 % 0.00 in
02:52 18.9 °F 12.0 °F 30.43 in NE 6.7 mph 10.4 mph 74 % 0.00 in
02:57 19.0 °F 12.1 °F 30.43 in ENE 8.3 mph 11.5 mph 74 % 0.00 in
03:06 19.0 °F 12.1 °F 30.43 in NE 5.6 mph 9.2 mph 74 % 0.00 in
03:15 18.9 °F 12.0 °F 30.43 in ENE 7.4 mph 11.5 mph 74 % 0.00 in
03:25 18.9 °F 12.3 °F 30.43 in NE 4.0 mph 4.0 mph 75 % 0.00 in
03:30 18.8 °F 12.5 °F 30.44 in ENE 6.2 mph 10.4 mph 76 % 0.00 in
03:36 18.9 °F 12.6 °F 30.44 in East 6.2 mph 10.4 mph 76 % 0.00 in
03:42 18.8 °F 12.5 °F 30.44 in NE 5.8 mph 9.2 mph 76 % 0.00 in
03:47 18.8 °F 12.5 °F 30.44 in ENE 5.9 mph 10.4 mph 76 % 0.00 in
03:54 18.7 °F 12.4 °F 30.44 in ENE 6.8 mph 10.4 mph 76 % 0.00 in
03:59 18.6 °F 12.3 °F 30.44 in NE 4.9 mph 10.4 mph 76 % 0.00 in
04:09 18.5 °F 12.2 °F 30.44 in NNE 3.4 mph 8.1 mph 76 % 0.00 in
04:21 18.3 °F 12.0 °F 30.43 in ENE 3.1 mph 10.4 mph 76 % 0.00 in
04:30 18.3 °F 12.3 °F 30.43 in ENE 5.7 mph 9.2 mph 77 % 0.00 in
04:42 18.3 °F 12.0 °F 30.44 in NE 3.2 mph 5.0 mph 76 % 0.00 in
04:47 18.2 °F 11.9 °F 30.44 in NE 3.2 mph 6.9 mph 76 % 0.00 in
04:52 18.2 °F 11.9 °F 30.44 in NE 3.6 mph 5.8 mph 76 % 0.00 in
05:01 18.2 °F 11.9 °F 30.44 in ENE 4.2 mph 10.4 mph 76 % 0.00 in
05:07 18.2 °F 11.9 °F 30.44 in NNE 5.0 mph 6.9 mph 76 % 0.00 in
05:17 18.2 °F 11.9 °F 30.44 in ENE 5.1 mph 9.2 mph 76 % 0.00 in
05:27 18.3 °F 12.3 °F 30.44 in ENE 5.7 mph 11.5 mph 77 % 0.00 in
05:45 18.7 °F 12.7 °F 30.44 in ENE 6.8 mph 11.5 mph 77 % 0.00 in
05:52 18.8 °F 13.1 °F 30.44 in North 3.4 mph 5.8 mph 78 % 0.00 in
05:58 18.8 °F 13.1 °F 30.44 in NNE 2.4 mph 9.2 mph 78 % 0.00 in
06:06 18.9 °F 13.2 °F 30.44 in NE 4.6 mph 6.9 mph 78 % 0.00 in
06:14 18.9 °F 13.5 °F 30.45 in ENE 3.4 mph 6.9 mph 79 % 0.00 in
06:26 19.1 °F 13.7 °F 30.45 in NNE 3.2 mph 8.0 mph 79 % 0.00 in
06:40 19.3 °F 14.1 °F 30.45 in ENE 3.7 mph 5.8 mph 80 % 0.00 in
06:51 19.8 °F 14.6 °F 30.44 in East 3.5 mph 9.0 mph 80 % 0.00 in
06:56 19.9 °F 14.7 °F 30.45 in NE 5.0 mph 10.0 mph 80 % 0.00 in
07:01 20.1 °F 14.9 °F 30.44 in ENE 3.4 mph 8.1 mph 80 % 0.00 in
07:06 20.3 °F 15.1 °F 30.45 in ENE 6.0 mph 10.0 mph 80 % 0.00 in
07:11 20.5 °F 15.3 °F 30.45 in ENE 6.4 mph 9.2 mph 80 % 0.00 in
07:26 20.8 °F 15.3 °F 30.45 in ENE 5.3 mph 8.1 mph 79 % 0.00 in
07:45 20.8 °F 15.3 °F 30.44 in ENE 6.6 mph 10.4 mph 79 % 0.00 in
07:50 20.8 °F 15.0 °F 30.45 in ENE 5.0 mph 10.4 mph 78 % 0.00 in
07:56 20.8 °F 15.0 °F 30.45 in ENE 6.0 mph 12.0 mph 78 % 0.00 in
08:07 20.8 °F 15.3 °F 30.45 in NE 7.1 mph 9.2 mph 79 % 0.00 in
08:17 20.9 °F 15.4 °F 30.45 in ENE 6.7 mph 11.5 mph 79 % 0.00 in
08:33 21.2 °F 15.7 °F 30.44 in ENE 6.3 mph 10.4 mph 79 % 0.00 in
08:41 21.3 °F 16.1 °F 30.44 in NE 6.7 mph 11.5 mph 80 % 0.00 in
08:48 21.5 °F 16.0 °F 30.44 in ENE 6.0 mph 9.2 mph 79 % 0.00 in
08:53 21.5 °F 16.0 °F 30.44 in ENE 4.0 mph 11.5 mph 79 % 0.00 in
09:00 21.6 °F 16.1 °F 30.44 in ENE 4.5 mph 10.4 mph 79 % 0.00 in
09:12 21.8 °F 16.3 °F 30.43 in ENE 7.2 mph 11.5 mph 79 % 0.00 in
09:23 22.4 °F 17.2 °F 30.43 in ENE 8.6 mph 11.5 mph 80 % 0.00 in
09:38 23.0 °F 17.5 °F 30.44 in ENE 6.4 mph 12.7 mph 79 % 0.00 in
09:46 23.2 °F 17.7 °F 30.44 in NE 2.8 mph 8.1 mph 79 % 0.00 in
09:52 23.5 °F 17.9 °F 30.44 in NE 8.3 mph 11.5 mph 79 % 0.00 in
10:00 23.7 °F 18.1 °F 30.44 in ENE 7.6 mph 10.4 mph 79 % 0.00 in
10:05 23.8 °F 17.9 °F 30.43 in NE 9.7 mph 11.5 mph 78 % 0.00 in
10:13 23.6 °F 17.4 °F 30.43 in ENE 8.9 mph 12.0 mph 77 % 0.00 in
10:22 23.6 °F 17.7 °F 30.42 in ENE 9.1 mph 13.8 mph 78 % 0.00 in
10:29 23.7 °F 17.8 °F 30.43 in ENE 8.5 mph 11.5 mph 78 % 0.00 in
10:37 23.9 °F 18.3 °F 30.43 in East 8.3 mph 13.8 mph 79 % 0.00 in
10:44 24.1 °F 18.5 °F 30.42 in ENE 8.5 mph 12.0 mph 79 % 0.00 in
11:00 24.3 °F 18.7 °F 30.41 in ENE 7.6 mph 11.5 mph 79 % 0.00 in
11:06 24.5 °F 18.9 °F 30.41 in NE 5.5 mph 9.0 mph 79 % 0.00 in
11:12 24.6 °F 19.0 °F 30.40 in ENE 8.6 mph 10.4 mph 79 % 0.00 in
11:26 24.9 °F 19.3 °F 30.39 in ENE 5.8 mph 9.0 mph 79 % 0.00 in
11:31 24.9 °F 19.0 °F 30.39 in ENE 7.4 mph 11.5 mph 78 % 0.00 in
11:42 25.1 °F 19.2 °F 30.38 in ENE 6.0 mph 8.0 mph 78 % 0.00 in
11:54 25.3 °F 19.4 °F 30.37 in ENE 7.1 mph 10.4 mph 78 % 0.00 in
12:02 25.3 °F 19.4 °F 30.36 in ENE 6.9 mph 11.0 mph 78 % 0.00 in
12:08 25.3 °F 19.4 °F 30.36 in ENE 6.0 mph 11.5 mph 78 % 0.00 in
12:26 25.5 °F 19.6 °F 30.35 in ENE 5.4 mph 9.2 mph 78 % 0.00 in
12:47 26.0 °F 19.8 °F 30.34 in ENE 4.3 mph 8.1 mph 77 % 0.00 in
12:52 26.1 °F 19.9 °F 30.34 in NE 0.9 mph 2.3 mph 77 % 0.00 in
13:06 26.5 °F 20.0 °F 30.33 in North 1.5 mph 3.5 mph 76 % 0.00 in
13:12 26.6 °F 20.1 °F 30.33 in ENE 3.7 mph 5.8 mph 76 % 0.00 in
13:22 26.6 °F 19.7 °F 30.33 in NNE 2.4 mph 6.9 mph 75 % 0.00 in
13:28 26.7 °F 20.1 °F 30.32 in ENE 4.1 mph 6.9 mph 76 % 0.00 in
13:38 26.9 °F 20.3 °F 30.32 in ENE 3.0 mph 4.6 mph 76 % 0.00 in
14:07 26.9 °F 20.0 °F 30.32 in NE 4.0 mph 5.8 mph 75 % 0.00 in
14:13 26.9 °F 20.3 °F 30.32 in ENE 2.8 mph 4.0 mph 76 % 0.00 in
14:22 26.9 °F 20.0 °F 30.32 in ENE 2.1 mph 3.5 mph 75 % 0.00 in
14:27 26.8 °F 19.9 °F 30.32 in ENE 3.5 mph 6.9 mph 75 % 0.00 in
14:37 26.8 °F 20.2 °F 30.31 in ENE 2.9 mph 3.5 mph 76 % 0.00 in
14:51 27.0 °F 20.7 °F 30.31 in ENE 5.6 mph 9.2 mph 77 % 0.00 in
15:01 26.9 °F 20.7 °F 30.31 in NE 6.5 mph 10.4 mph 77 % 0.00 in
15:08 26.9 °F 20.7 °F 30.31 in ENE 4.3 mph 8.1 mph 77 % 0.00 in
15:34 26.7 °F 20.1 °F 30.31 in ENE 6.3 mph 9.2 mph 76 % 0.00 in
15:40 26.6 °F 20.1 °F 30.32 in ENE 4.9 mph 11.5 mph 76 % 0.00 in
15:46 26.5 °F 19.6 °F 30.32 in NE 5.6 mph 12.0 mph 75 % 0.00 in
15:47 26.5 °F 19.6 °F 30.31 in ENE 4.7 mph 11.5 mph 75 % 0.00 in
15:48 26.4 °F 19.5 °F 30.32 in ENE 5.1 mph 11.5 mph 75 % 0.00 in
15:49 26.4 °F 19.9 °F 30.32 in NE 6.0 mph 8.1 mph 76 % 0.00 in
15:50 26.4 °F 19.9 °F 30.32 in ENE 6.0 mph 8.1 mph 76 % 0.00 in
15:51 26.4 °F 19.9 °F 30.31 in NE 6.4 mph 9.2 mph 76 % 0.00 in
15:52 26.4 °F 19.9 °F 30.31 in East 7.2 mph 10.4 mph 76 % 0.00 in
15:54 26.3 °F 19.8 °F 30.31 in ENE 7.7 mph 11.0 mph 76 % 0.00 in
15:57 26.2 °F 19.7 °F 30.31 in ENE 5.2 mph 11.5 mph 76 % 0.00 in
15:59 26.2 °F 19.7 °F 30.31 in ENE 6.0 mph 9.2 mph 76 % 0.00 in
16:05 26.1 °F 19.6 °F 30.31 in NE 4.7 mph 9.2 mph 76 % 0.00 in
16:06 26.1 °F 19.6 °F 30.31 in ENE 3.8 mph 5.8 mph 76 % 0.00 in
16:07 26.1 °F 19.6 °F 30.31 in NE 5.1 mph 8.1 mph 76 % 0.00 in
16:17 25.9 °F 19.4 °F 30.31 in NE 5.8 mph 8.1 mph 76 % 0.00 in
16:18 25.9 °F 19.4 °F 30.31 in ENE 6.6 mph 9.2 mph 76 % 0.00 in
16:32 25.7 °F 19.5 °F 30.31 in NE 4.1 mph 8.1 mph 77 % 0.00 in
16:39 25.7 °F 19.5 °F 30.31 in ENE 3.3 mph 9.0 mph 77 % 0.00 in
16:51 25.6 °F 19.4 °F 30.32 in ENE 5.0 mph 8.1 mph 77 % 0.00 in
16:57 25.6 °F 19.7 °F 30.32 in NNE 3.3 mph 6.0 mph 78 % 0.00 in
17:07 25.4 °F 19.2 °F 30.32 in ENE 7.2 mph 11.5 mph 77 % 0.00 in
17:19 25.3 °F 19.4 °F 30.31 in ENE 4.0 mph 7.0 mph 78 % 0.00 in
17:36 25.3 °F 19.4 °F 30.32 in NNE 0.6 mph 2.3 mph 78 % 0.00 in
17:43 25.3 °F 19.4 °F 30.32 in ENE 5.2 mph 6.9 mph 78 % 0.00 in
17:58 25.1 °F 18.9 °F 30.32 in NE 2.4 mph 4.6 mph 77 % 0.00 in
18:04 25.1 °F 18.9 °F 30.32 in NNE 2.4 mph 4.6 mph 77 % 0.00 in
18:13 25.1 °F 18.9 °F 30.32 in ENE 2.8 mph 8.1 mph 77 % 0.00 in
18:21 25.2 °F 19.0 °F 30.31 in ENE 2.6 mph 6.9 mph 77 % 0.00 in
18:29 25.2 °F 19.3 °F 30.31 in ENE 3.5 mph 9.0 mph 78 % 0.00 in
18:36 25.1 °F 18.9 °F 30.30 in East 5.1 mph 6.9 mph 77 % 0.00 in
18:44 25.0 °F 18.8 °F 30.30 in ENE 3.4 mph 6.9 mph 77 % 0.00 in
18:50 25.0 °F 18.8 °F 30.30 in ENE 4.8 mph 9.2 mph 77 % 0.00 in
19:23 25.0 °F 18.8 °F 30.29 in East 7.3 mph 10.4 mph 77 % 0.00 in
19:47 24.9 °F 18.7 °F 30.31 in ENE 5.6 mph 9.2 mph 77 % 0.00 in
19:52 24.9 °F 19.0 °F 30.31 in ENE 5.0 mph 8.1 mph 78 % 0.00 in
20:03 24.8 °F 18.9 °F 30.31 in ENE 6.3 mph 9.2 mph 78 % 0.00 in
20:16 24.8 °F 18.9 °F 30.30 in ENE 5.4 mph 9.2 mph 78 % 0.00 in
20:29 24.8 °F 19.2 °F 30.30 in ENE 5.4 mph 10.4 mph 79 % 0.00 in
20:34 24.7 °F 19.1 °F 30.30 in ENE 4.9 mph 6.9 mph 79 % 0.00 in
20:45 24.7 °F 19.1 °F 30.30 in ENE 6.5 mph 10.0 mph 79 % 0.00 in
20:58 24.7 °F 19.4 °F 30.28 in ENE 5.1 mph 8.1 mph 80 % 0.00 in
21:04 24.8 °F 19.5 °F 30.28 in ENE 6.2 mph 9.2 mph 80 % 0.00 in
21:16 24.9 °F 19.6 °F 30.28 in ENE 6.7 mph 9.0 mph 80 % 0.00 in
21:22 24.9 °F 19.6 °F 30.28 in ENE 7.1 mph 11.5 mph 80 % 0.00 in
21:28 24.9 °F 19.6 °F 30.28 in ENE 7.9 mph 9.2 mph 80 % 0.00 in
21:48 24.9 °F 19.6 °F 30.26 in East 8.2 mph 10.4 mph 80 % 0.00 in
21:58 25.0 °F 20.0 °F 30.27 in East 6.5 mph 9.2 mph 81 % 0.00 in
22:15 25.1 °F 20.1 °F 30.28 in ENE 4.1 mph 5.0 mph 81 % 0.00 in
22:31 25.2 °F 20.5 °F 30.28 in ENE 4.5 mph 6.9 mph 82 % 0.00 in
22:40 25.2 °F 20.8 °F 30.27 in East 4.4 mph 8.1 mph 83 % 0.00 in
22:45 25.3 °F 20.9 °F 30.26 in ENE 3.9 mph 6.0 mph 83 % 0.00 in
22:50 25.4 °F 21.0 °F 30.26 in ENE 3.8 mph 6.9 mph 83 % 0.00 in
22:58 25.6 °F 21.4 °F 30.27 in ENE 3.9 mph 6.9 mph 84 % 0.00 in
23:03 25.7 °F 21.5 °F 30.27 in ENE 4.5 mph 5.0 mph 84 % 0.00 in
23:10 25.8 °F 21.9 °F 30.26 in ENE 3.8 mph 9.0 mph 85 % 0.00 in
23:11 25.8 °F 21.9 °F 30.26 in ENE 4.9 mph 9.2 mph 85 % 0.00 in
23:21 26.0 °F 22.1 °F 30.26 in ENE 5.5 mph 8.0 mph 85 % 0.00 in
23:29 26.1 °F 22.2 °F 30.25 in ENE 5.0 mph 8.1 mph 85 % 0.00 in
23:36 26.2 °F 22.3 °F 30.25 in ENE 2.9 mph 3.5 mph 85 % 0.00 in
23:49 26.4 °F 22.8 °F 30.26 in ENE 4.2 mph 7.0 mph 86 % 0.00 in
23:56 26.4 °F 22.8 °F 30.25 in ENE 3.6 mph 4.6 mph 86 % 0.00 in
Crab Meadow Weather
Compliments of Weather Underground - 2.25 mb

Script developed by  Jim McMurry - jmcmurry@mwt.net Adapted for the template by  Wim van der Kuil - Leuven-Template.eu

Weather Terms: Watch - A watch is used when the risk of a hazardous weather or hydrologic event has increased significantly, but its occurrence, location or timing is still uncertain. It is intended to provide enough lead time so those who need to set their plans in motion can do so. A watch means that hazardous weather is possible. People should have a plan of action in case a storm threatens and they should listen for later information and possible warnings especially when planning travel or outdoor activities.